COSMOS 2251 DEB, 47062

Orbit data source: Space-Track

COSMOS 2251 DEB, 47062 is space debris in LEO originally from a launch on Wed, 16 Jun 1993 UTC launched from the Plesetsk Missile And Space Complex (PKMTR). The debris from Iridium 33, an American commercial communications satellite, has been tracked extensively since its accidental collision with the defunct Russian satellite Cosmos 2251 in 2009. This event, occurring at high speed in low Earth orbit (LEO), generated thousands of pieces of space debris, significantly increasing the risk of further collisions. The Iridium 33 debris cloud has impacted space traffic management and orbital debris mitigation strategies, making it a subject of ongoing study in space situational awareness.

Loading next visibility...
Identifier
47062, 1993-036BXS
Orbit
LEO
Country
Flag of CISCIS
Related business
Manufacturer
Unknown
Mission
Spacecraft
Bus & Motor
Unknown
Mass
Unknown
Launch date (UTC)
1993-06-16 (32 years ago)
Launch vehicle
Unknown
Launch site
Plesetsk Missile And Space Complex (PKMTR)
Object type
Payload
Rocket body
Debris
Shape & HBR
Unknown shape, 0.1 m
Radar Cross Section
Small (<0.1 m²)

Expand to show TLE details & history
Last TLE update: 18 hours ago

TLE from 18 hours ago
0 COSMOS 2251 DEB
1 47062U 93036BXS 25299.90647030  .00001666  00000-0  12909-2 0  9998
2 47062  74.0828 155.3938 0323335 291.3684  82.2147 13.71638240549609
Epoch: 2025-10-26T21:45Z
TLE epoch observation values (Epoch: 2025-10-26T21:45:19.033Z)
Latitude
16.58058°
Longitude
158.39406°
Altitude
970.918 km
Speed
7.38 km/s
True Right ascension
10h 40m 57s
True Declination
16° 29' 22"
Sunlit
Object was in daylight at epoch
Visualization orbit readout
Latitude
Unknown
Longitude
Unknown
Altitude
Unknown
Speed
Unknown
Apparent Right ascension
Unknown
Apparent Declination
Unknown
Sunlit
N/A
Visualization observer readout
Local Sidereal Time
11:20:45
Azimuth
Unknown
Elevation
Unknown
Doppler factor
Unknown
Orbital elements
Apogee altitude
1,229.666 km
Perigee altitude
753.101 km
Semi-major axis
7,369.521 km
Eccentricity
0.03233
Inclination
74.0828°
RAAN
155.3938°
Arg. of periapsis
291.3684°
True anomaly
85.90335°
Mean anomaly
82.2147°
Eccentric anomaly
84.05732°
Mean motion
3.43071 °/min
Orbital period
104.93 mins
BSTAR
0.0012909
Loading maneuver chart data...
Computing Atmospheric mass density...

Documentation

Showing up to 5 results
|